timestamp,wind_dir_avg,wind_spd_avg,wind_spd_max_dir,wind_spd_gust,battery_voltage,lat,long
2022-07-29 00:04:00+00:00,84.0,5.38,73.0,7.18,12.57,47.59359,-54.27349
2022-07-29 00:14:01+00:00,81.0,5.44,102.0,7.63,12.49,47.59359,-54.27349
2022-07-29 00:24:01+00:00,86.0,4.0,102.0,6.0,12.49,47.59359,-54.27349
2022-07-29 00:34:01+00:00,82.0,4.39,84.0,6.81,12.49,47.59359,-54.27349
2022-07-29 00:44:01+00:00,70.0,6.71,70.0,7.7,12.49,47.59359,-54.27349
2022-07-29 00:54:01+00:00,70.0,7.01,68.0,7.65,12.49,47.59359,-54.27349
2022-07-29 01:04:01+00:00,74.0,6.17,69.0,7.08,12.49,47.59359,-54.27349
2022-07-29 01:14:01+00:00,70.0,6.47,65.0,8.35,12.49,47.59359,-54.27349
2022-07-29 01:24:01+00:00,72.0,5.27,60.0,7.39,12.49,47.59359,-54.27349
2022-07-29 01:34:01+00:00,71.0,6.17,61.0,8.39,12.49,47.59359,-54.27349
2022-07-29 01:44:01+00:00,72.0,6.21,65.0,7.08,12.49,47.59359,-54.27349
2022-07-29 01:54:01+00:00,74.0,5.87,64.0,7.17,12.49,47.59359,-54.27349
2022-07-29 02:04:01+00:00,72.0,6.22,70.0,7.38,12.49,47.59359,-54.27349
2022-07-29 02:14:00+00:00,76.0,4.21,71.0,5.83,12.49,47.59359,-54.27349
2022-07-29 02:24:00+00:00,72.0,5.65,70.0,6.59,12.49,47.59359,-54.27349
2022-07-29 02:34:00+00:00,73.0,6.57,72.0,7.5,12.49,47.59359,-54.27349
2022-07-29 02:44:00+00:00,69.0,5.91,67.0,7.07,12.49,47.59359,-54.27349
2022-07-29 02:54:00+00:00,77.0,4.04,67.0,5.81,12.49,47.59359,-54.27349
2022-07-29 03:04:00+00:00,77.0,3.48,58.0,4.88,12.49,47.59359,-54.27349
2022-07-29 03:14:00+00:00,76.0,4.76,69.0,6.1,12.41,47.59359,-54.27349
2022-07-29 03:24:00+00:00,80.0,3.38,81.0,4.41,12.41,47.59359,-54.27349
2022-07-29 03:34:00+00:00,85.0,3.89,87.0,4.98,12.41,47.59359,-54.27349
2022-07-29 03:44:00+00:00,90.0,2.81,76.0,3.98,12.41,47.59359,-54.27349
2022-07-29 03:54:00+00:00,72.0,3.77,60.0,5.1,12.41,47.59359,-54.27349
2022-07-29 04:04:00+00:00,72.0,3.11,60.0,4.29,12.41,47.59359,-54.27349
2022-07-29 04:14:00+00:00,59.0,5.76,74.0,6.64,12.41,47.59359,-54.27349
2022-07-29 04:24:00+00:00,45.0,4.79,47.0,5.67,12.41,47.59359,-54.27349
2022-07-29 04:34:00+00:00,55.0,5.58,60.0,6.27,12.41,47.59359,-54.27349
2022-07-29 04:44:00+00:00,67.0,5.37,69.0,6.94,12.41,47.59359,-54.27349
2022-07-29 04:54:00+00:00,46.0,5.75,70.0,7.33,12.41,47.59359,-54.27349
2022-07-29 05:04:00+00:00,55.0,3.54,57.0,4.57,12.41,47.59359,-54.27349
2022-07-29 06:14:00+00:00,41.0,4.85,30.0,5.9,12.41,47.59359,-54.27349
2022-07-29 06:24:00+00:00,37.0,4.35,39.0,6.38,12.41,47.59359,-54.27349
2022-07-29 06:34:00+00:00,51.0,4.67,59.0,5.59,12.41,47.59359,-54.27349
2022-07-29 06:44:00+00:00,55.0,2.38,62.0,2.96,12.41,47.59359,-54.27349
2022-07-29 06:54:00+00:00,32.0,4.02,32.0,4.88,12.41,47.59359,-54.27349
2022-07-29 07:04:00+00:00,35.0,4.3,46.0,5.21,12.41,47.59359,-54.27349
2022-07-29 07:14:01+00:00,69.0,5.01,72.0,5.93,12.25,47.59359,-54.27349
2022-07-29 07:24:01+00:00,70.0,4.82,84.0,5.6,12.25,47.59359,-54.27349
2022-07-29 07:34:01+00:00,66.0,4.56,64.0,5.31,12.25,47.59359,-54.27349
2022-07-29 07:44:01+00:00,77.0,2.72,89.0,4.17,12.25,47.59359,-54.27349
2022-07-29 07:54:01+00:00,74.0,4.03,64.0,5.2,12.25,47.59359,-54.27349
2022-07-29 08:04:01+00:00,68.0,3.22,66.0,4.7,12.25,47.59359,-54.27349
2022-07-29 08:14:00+00:00,78.0,3.01,81.0,3.89,12.33,47.59359,-54.27349
2022-07-29 08:24:00+00:00,51.0,4.14,65.0,5.14,12.33,47.59359,-54.27349
2022-07-29 08:34:00+00:00,62.0,4.67,56.0,5.14,12.33,47.59359,-54.27349
2022-07-29 08:44:00+00:00,69.0,3.74,62.0,4.49,12.33,47.59359,-54.27349
2022-07-29 08:54:00+00:00,44.0,4.74,56.0,5.68,12.33,47.59359,-54.27349
2022-07-29 09:04:00+00:00,39.0,3.74,41.0,4.4,12.33,47.59359,-54.27349
2022-07-29 10:14:00+00:00,58.0,3.01,56.0,4.13,12.41,47.59359,-54.27349
2022-07-29 10:24:00+00:00,59.0,3.63,63.0,4.29,12.41,47.59359,-54.27349
2022-07-29 10:34:00+00:00,30.0,4.56,34.0,5.28,12.41,47.59359,-54.27349
2022-07-29 10:44:00+00:00,37.0,3.6,36.0,4.58,12.41,47.59359,-54.27349
2022-07-29 10:54:00+00:00,62.0,3.98,59.0,4.97,12.41,47.59359,-54.27349
2022-07-29 11:04:00+00:00,52.0,2.24,55.0,2.74,12.41,47.59359,-54.27349
2022-07-29 11:14:00+00:00,48.0,2.68,50.0,3.25,13.05,47.59359,-54.27349
2022-07-29 11:24:00+00:00,65.0,2.38,59.0,3.64,13.05,47.59359,-54.27349
2022-07-29 11:34:00+00:00,62.0,4.11,68.0,4.7,13.05,47.59359,-54.27349
2022-07-29 11:44:00+00:00,39.0,2.08,43.0,3.49,13.05,47.59359,-54.27349
2022-07-29 11:54:00+00:00,55.0,1.92,44.0,2.57,13.05,47.59359,-54.27349
2022-07-29 12:04:00+00:00,34.0,3.61,30.0,4.07,13.05,47.59359,-54.27349
2022-07-29 12:14:01+00:00,51.0,3.1,45.0,3.91,13.29,47.59359,-54.27349
2022-07-29 12:24:01+00:00,76.0,1.85,70.0,2.68,13.29,47.59359,-54.27349
2022-07-29 12:34:01+00:00,66.0,2.73,71.0,3.64,13.29,47.59359,-54.27349
2022-07-29 12:44:01+00:00,64.0,1.72,66.0,2.39,13.29,47.59359,-54.27349
2022-07-29 12:54:01+00:00,67.0,1.98,70.0,2.8,13.29,47.59359,-54.27349
2022-07-29 13:04:01+00:00,27.0,1.85,32.0,2.18,13.29,47.59359,-54.27349
2022-07-29 13:14:01+00:00,51.0,1.76,55.0,2.13,13.37,47.59359,-54.27349
2022-07-29 13:24:01+00:00,44.0,2.02,39.0,2.65,13.37,47.59359,-54.27349
2022-07-29 13:34:01+00:00,66.0,1.67,60.0,2.01,13.37,47.59359,-54.27349
2022-07-29 13:44:01+00:00,69.0,2.65,64.0,3.38,13.37,47.59359,-54.27349
2022-07-29 13:54:01+00:00,119.0,2.77,118.0,3.41,13.37,47.59359,-54.27349
2022-07-29 14:04:01+00:00,107.0,2.59,113.0,3.12,13.37,47.59359,-54.27349
2022-07-29 14:14:00+00:00,131.0,1.66,131.0,2.21,13.68,47.59359,-54.27349
2022-07-29 14:24:00+00:00,116.0,1.9,109.0,2.31,13.68,47.59359,-54.27349
2022-07-29 14:34:00+00:00,116.0,2.0,120.0,2.62,13.68,47.59359,-54.27349
2022-07-29 14:44:00+00:00,137.0,2.1,146.0,2.76,13.68,47.59359,-54.27349
2022-07-29 14:54:00+00:00,147.0,1.86,146.0,2.68,13.68,47.59359,-54.27349
2022-07-29 15:04:00+00:00,162.0,2.56,164.0,2.99,13.68,47.59359,-54.27349
2022-07-29 15:14:00+00:00,163.0,2.65,165.0,3.03,14.32,47.59359,-54.27349
2022-07-29 15:24:00+00:00,163.0,2.5,163.0,2.78,14.32,47.59359,-54.27349
2022-07-29 15:34:00+00:00,177.0,2.64,181.0,3.25,14.32,47.59359,-54.27349
2022-07-29 15:44:00+00:00,195.0,3.03,195.0,3.44,14.32,47.59359,-54.27349
2022-07-29 15:54:00+00:00,192.0,2.27,193.0,2.75,14.32,47.59359,-54.27349
2022-07-29 16:04:00+00:00,182.0,2.82,190.0,3.37,14.32,47.59359,-54.27349
2022-07-29 17:14:01+00:00,185.0,2.94,187.0,3.27,13.84,47.59359,-54.27349
2022-07-29 17:24:01+00:00,202.0,3.16,200.0,3.46,13.84,47.59359,-54.27349
2022-07-29 17:34:01+00:00,196.0,3.32,197.0,3.71,13.84,47.59359,-54.27349
2022-07-29 17:44:01+00:00,216.0,2.74,216.0,3.01,13.84,47.59359,-54.27349
2022-07-29 17:54:01+00:00,205.0,3.72,206.0,4.03,13.84,47.59359,-54.27349
2022-07-29 18:04:01+00:00,209.0,4.54,212.0,4.78,13.84,47.59359,-54.27349
2022-07-29 18:14:00+00:00,222.0,5.24,218.0,6.08,13.68,47.59359,-54.27349
2022-07-29 18:24:00+00:00,219.0,6.25,227.0,6.99,13.68,47.59359,-54.27349
2022-07-29 18:34:00+00:00,218.0,6.02,217.0,6.89,13.68,47.59359,-54.27349
2022-07-29 18:44:00+00:00,219.0,6.59,226.0,7.31,13.68,47.59359,-54.27349
2022-07-29 18:54:00+00:00,223.0,6.93,222.0,7.84,13.68,47.59359,-54.27349
2022-07-29 19:04:00+00:00,215.0,7.07,215.0,7.85,13.68,47.59359,-54.27349
2022-07-29 19:14:00+00:00,221.0,7.06,226.0,8.01,13.68,47.59359,-54.27349
2022-07-29 19:24:00+00:00,214.0,6.75,213.0,7.78,13.68,47.59359,-54.27349
2022-07-29 19:34:00+00:00,219.0,7.81,222.0,8.42,13.68,47.59359,-54.27349
2022-07-29 19:44:00+00:00,214.0,7.87,216.0,8.44,13.68,47.59359,-54.27349
2022-07-29 19:54:00+00:00,213.0,7.37,212.0,8.1,13.68,47.59359,-54.27349
2022-07-29 20:04:00+00:00,216.0,8.22,219.0,8.93,13.68,47.59359,-54.27349
2022-07-29 20:14:00+00:00,212.0,6.58,213.0,7.4,13.84,47.59359,-54.27349
2022-07-29 20:24:00+00:00,217.0,7.35,220.0,8.34,13.84,47.59359,-54.27349
2022-07-29 20:34:00+00:00,235.0,7.43,233.0,8.4,13.84,47.59359,-54.27349
2022-07-29 20:44:00+00:00,231.0,7.21,221.0,9.18,13.84,47.59359,-54.27349
2022-07-29 20:54:00+00:00,224.0,7.53,225.0,8.11,13.84,47.59359,-54.27349
2022-07-29 21:04:00+00:00,243.0,7.74,241.0,8.62,13.84,47.59359,-54.27349
2022-07-29 21:14:00+00:00,231.0,7.3,235.0,9.16,13.68,47.59359,-54.27349
2022-07-29 21:24:00+00:00,218.0,6.8,225.0,7.61,13.68,47.59359,-54.27349
2022-07-29 21:34:00+00:00,226.0,6.67,227.0,7.74,13.68,47.59359,-54.27349
2022-07-29 21:44:00+00:00,209.0,6.27,209.0,7.31,13.68,47.59359,-54.27349
2022-07-29 21:54:00+00:00,214.0,6.87,219.0,7.88,13.68,47.59359,-54.27349
2022-07-29 22:04:00+00:00,214.0,7.69,217.0,8.92,13.68,47.59359,-54.27349
2022-07-29 22:14:01+00:00,215.0,6.71,219.0,8.27,13.21,47.59359,-54.27349
2022-07-29 22:24:01+00:00,222.0,6.37,218.0,7.18,13.21,47.59359,-54.27349
2022-07-29 22:34:01+00:00,207.0,5.95,208.0,7.09,13.21,47.59359,-54.27349
2022-07-29 22:44:01+00:00,223.0,7.64,229.0,8.26,13.21,47.59359,-54.27349
2022-07-29 22:54:01+00:00,205.0,6.47,213.0,7.5,13.21,47.59359,-54.27349
2022-07-29 23:04:01+00:00,211.0,6.61,215.0,7.66,13.21,47.59359,-54.27349
2022-07-29 23:14:01+00:00,202.0,7.94,206.0,9.1,12.65,47.59359,-54.27349
2022-07-29 23:24:01+00:00,224.0,7.46,223.0,8.29,12.65,47.59359,-54.27349
2022-07-29 23:34:01+00:00,212.0,6.86,214.0,7.75,12.65,47.59359,-54.27349
2022-07-29 23:44:01+00:00,200.0,7.44,196.0,8.44,12.65,47.59359,-54.27349
2022-07-29 23:54:01+00:00,214.0,7.5,219.0,8.5,12.65,47.59359,-54.27349
